This is the latest recevied weather packets stored in our database for station/object N5XJB. If no packets are shown the sender has not sent any weather packets the latest 10 day(s).
| Time | Temp. | Humidity | Pressure | Rain* | Wind** | Luminosity | Snow |
|---|---|---|---|---|---|---|---|
| 1777412987 | 33.33° C | 55% | 1012.4 hPa | 0 mm | - | 476 W/m² | - |
| 1777412685 | 32.78° C | 57% | 1012.1 hPa | 0 mm | - | 493 W/m² | - |
| 1777412384 | 33.33° C | 56% | 1012.4 hPa | 0 mm | - | 516 W/m² | - |
| 1777412078 | 32.78° C | 56% | 1012.4 hPa | 0 mm | - | 544 W/m² | - |
| 1777411773 | 32.78° C | 58% | 1012.4 hPa | 0 mm | - | 421 W/m² | - |
| 1777411467 | 32.78° C | 59% | 1012.7 hPa | 0 mm | - | 487 W/m² | - |
| 1777411161 | 32.78° C | 59% | 1012.7 hPa | 0 mm | - | 533 W/m² | - |
| 1777410857 | 33.33° C | 56% | 1012.4 hPa | 0 mm | - | 579 W/m² | - |
| 1777410556 | 33.33° C | 57% | 1012.7 hPa | 0 mm | - | 638 W/m² | - |
| 1777410255 | 33.89° C | 56% | 1012.7 hPa | 0 mm | - | 596 W/m² | - |
| 1777409950 | 33.33° C | 57% | 1012.7 hPa | 0 mm | - | 594 W/m² | - |
| 1777409645 | 32.78° C | 59% | 1012.7 hPa | 0 mm | - | 668 W/m² | - |
| 1777409342 | 32.22° C | 59% | 1013.1 hPa | 0 mm | - | 691 W/m² | - |
| 1777409037 | 32.78° C | 60% | 1013.1 hPa | 0 mm | - | 588 W/m² | - |
| 1777408734 | 33.33° C | 56% | 1013.1 hPa | 0 mm | - | 699 W/m² | - |
| 1777408430 | 32.78° C | 58% | 1013.1 hPa | 0 mm | - | 720 W/m² | - |
| 1777408125 | 33.33° C | 57% | 1013.1 hPa | 0 mm | - | 722 W/m² | - |
| 1777407820 | 33.33° C | 55% | 1013.1 hPa | 0 mm | - | 721 W/m² | - |
| 1777407518 | 33.89° C | 55% | 1013.4 hPa | 0 mm | - | 756 W/m² | - |
| 1777407217 | 33.33° C | 56% | 1013.4 hPa | 0 mm | - | 767 W/m² | - |
| 1777406912 | 33.33° C | 55% | 1013.7 hPa | 0 mm | - | 664 W/m² | - |
| 1777406607 | 32.78° C | 56% | 1013.4 hPa | 0 mm | - | 666 W/m² | - |
| 1777406303 | 33.33° C | 56% | 1013.7 hPa | 0 mm | - | 689 W/m² | - |
| 1777406002 | 32.78° C | 57% | 1013.7 hPa | 0 mm | - | 853 W/m² | - |
| 1777405699 | 32.78° C | 56% | 1013.7 hPa | 0 mm | - | 813 W/m² | - |
* Rain latest hour (hover to see other rain measurements)
** Current wind speed in m/s (hover to see current wind gust speed)